Regional Weather Roundup
Issued by NWS

Home | Current Version | Previous Version | Graphics & Text | Print | Product List | Glossary On
Versions: 1 2 3 4 5 6 7 8 9 10 11 12 13 14 15 16 17 18 19 20 21 22 23 24 25 26 27 28 29 30 31 32 33 34 35 36 37 38 39 40 41 42 43 44 45 46 47 48 49 50
000
ASUS45 KTFX 301319
RWRMT
MONTANA HOURLY WEATHER ROUNDUP
NATIONAL WEATHER SERVICE GREAT FALLS MT
719 AM MDT TUE SEP 30 2014

NOTE: "FAIR" INDICATES FEW OR NO CLOUDS BELOW 12000 FEET WITH NO
SIGNIFICANT WEATHER AND/OR OBSTRUCTIONS TO VISIBILITY.

* THESE STATIONS ARE NOT UNDER NWS QUALITY CONTROL. THEY DO NOT
   REPORT WEATHER SUCH AS PRECIPITATION OR FOG.

MTZ001>007-043-301400-
WEST OF THE DIVIDE
CITY           SKY/WX    TMP DP  RH WIND       PRES   REMARKS
KALISPELL      CLOUDY    52  48  86 SW5       29.72F
MISSOULA       LGT RAIN  50  50 100 NW5       29.81S
BUTTE          CLOUDY    46  39  77 CALM      29.85F
MULLAN PASS    LGT RAIN  39  39 100 VRB6      29.84S VSB 3/4  WCI  35
* ESSEX        N/A       49  48  96 N/A        N/A
* LINCOLN      N/A       47  45  93 SW2        N/A
* LOOKOUT PASS N/A       45  43  93 NE6        N/A
* POLSON       N/A       49  48  96 S2G7       N/A
* RONAN APT    CLOUDY    52  50  93 N/A        N/A
* SEELEY LAKE  N/A       47  46  96 N/A        N/A
* THOMP F APT  CLOUDY    39  38  96 N/A        N/A
* YAAK HILL    N/A       52  47  83 E1         N/A
$$

MTZ008-052>055-301400-
SOUTHWEST MONTANA
CITY           SKY/WX    TMP DP  RH WIND       PRES   REMARKS
BOZEMAN        CLOUDY    48  45  89 E5        29.82S
DILLON         CLOUDY    46  39  77 S13       29.85F
W YELLOWSTONE  CLOUDY    41  37  86 SW8       29.90F
* THREE FORKS  CLOUDY    50  32  50 N/A        N/A
* BOULDER HILL N/A       47  33  58 S13        N/A
* RAYNOLDS PAS N/A       41  25  53 SE2        N/A
* WHITEHALL    N/A       50  43  77 W7         N/A
* WISE RIVER   N/A       44  38  80 NW6        N/A
$$

MTZ009>010-012-014-046-048-049-054-301400-
EAST SLOPES AND CENTRAL MONTANA
CITY           SKY/WX    TMP DP  RH WIND       PRES   REMARKS
CUT BANK       CLOUDY    55  41  59 W16       29.65R
GREAT FALLS    CLOUDY    52  45  77 SW12      29.68F
HELENA         CLOUDY    54  43  67 W7        29.76S
MALMSTROM AFB  CLOUDY    54  45  72 SW15      29.69F
* CONRAD       CLOUDY    57  46  67 W15        N/A
* DEARBORN     N/A       52  47  83 N/A        N/A
* EAST GLACIER N/A       50  41  71 W20G27     N/A
* MONARCH      N/A       48  35  61 SW12       N/A
* PENDROY      N/A       54  38  55 NW14G24    N/A
* ROGERS PASS  N/A       45  43  93 E9G17      N/A
* SAINT MARY   N/A       53  40  62 S7G16      N/A
* SWEET GRASS  N/A       55  45  69 W16G25     N/A
* WHITE SULPH  N/A       48  42  80 NW4        N/A
$$

MTZ011-013-016-021-035-040-045-047-050-051-301400-
NORTH CENTRAL MONTANA
CITY           SKY/WX    TMP DP  RH WIND       PRES   REMARKS
LEWISTOWN      CLOUDY    54  43  67 SW9       29.71F
* FORT BENTON  CLOUDY    55  45  69 S5        29.67F
* CHESTER      N/A       53  47  80 SW6G11     N/A
* DENTON       N/A       53  42  66 W10        N/A
* JUDITH GAP   N/A       48  41  77 SW9        N/A
* LOMA         N/A       55  47  75 SW3        N/A
$$

MTZ017>020-022>027-061-062-301400-
NORTHEAST MONTANA
CITY           SKY/WX    TMP DP  RH WIND       PRES   REMARKS
GLASGOW        CLOUDY    52  48  86 SE9       29.64F
GLENDIVE       CLOUDY    52  50  93 NE7       29.65F
JORDAN         CLOUDY    52  50  93 SW5       29.65F
SIDNEY         CLOUDY    54  52  93 N6        29.67F
WOLF POINT     CLOUDY    54  52  93 SE3       29.68F
* BEAVER HILL  N/A       51  50  96 NE1        N/A
* CIRCLE       N/A       53  51  93 SE3G8      N/A
* LINDSAY DVD  N/A       50  50 100 E7         N/A
* NAVAJO       N/A       50  50 100 SE8        N/A
$$

MTZ028>042-056>058-301400-
SOUTHCENTRAL AND SOUTHEAST MONTANA
CITY           SKY/WX    TMP DP  RH WIND       PRES   REMARKS
BAKER          LGT RAIN  52  50  93 E8        29.67S
BILLINGS       PTCLDY    45  43  93 SW6       29.72F
LIVINGSTON     CLOUDY    52  39  61 W16G25    29.78F
MILES CITY     CLOUDY    52  48  86 NW8       29.65F
* LAUREL APT   PTCLDY    46  37  71 N/A        N/A
* ROUNDUP APT  MOCLDY    46  39  77 SW6        N/A
* ALZADA       N/A       51  51 100 NW8        N/A
* HYSHAM       N/A       48  46  93 W8         N/A
* LAME DEER    N/A       51  48  90 NW6        N/A
* REED POINT   N/A       53  42  66 W8G13      N/A
* ROSCOE HILL  N/A       49  28  44 N2G9       N/A
$$

REGIONAL REPORTS...DAKOTAS
CITY           SKY/WX    TMP DP  RH WIND       PRES   REMARKS
WILLISTON      RAIN      52  52 100 SE5       29.71F
DICKINSON      LGT RAIN  52  52 100 E12       29.66F
BEACH          N/A       50  50 100 E5        29.68F
CROSBY         LGT RAIN  50  50 100 SE7       29.73F
TIOGA          FOG       50  50 100 SE9       29.75F VSB 3
WATFORD CITY   LGT RAIN  50  50 100 E7        29.68F
BISMARCK       CLOUDY    54  50  86 E14       29.74F
GRAND FORKS    MOCLDY    43  41  93 SE10      29.95F
FARGO          CLOUDY    46  43  89 SE12      29.94F
BUFFALO SD     CLOUDY    54  52  93 NE15      29.54F
RAPID CITY     LGT RAIN  55  55 100 N17       29.44F VSB 1
$$

REGIONAL REPORTS...WYOMING/IDAHO/WASHINGTON
CITY           SKY/WX    TMP DP  RH WIND       PRES   REMARKS
GILLETTE       LGT RAIN  50  48  93 NW6       29.67R
SHERIDAN       MOCLDY    50  43  77 W9        29.69S
CODY           MOCLDY    54  36  51 NW6       29.76S
YELLOWSTONE LA CLOUDY    37  36  96 W6        29.94F WCI  32
SALMON         CLOUDY    48  46  93 CALM      29.85F
MULLAN PASS    LGT RAIN  39  39 100 VRB6      29.84S VSB 3/4  WCI  35
SAND POINT     CLOUDY    54  54 100 S3        29.77R
SPOKANE        PTCLDY    48  43  83 SW17      29.81R
$$

REGIONAL REPORTS...ALBERTA
CITY           SKY/WX    TMP DP  RH WIND       PRES   REMARKS
CALGARY        LGT RAIN  50  43  77 N15G21    29.65R
LETHBRIDGE     CLOUDY    59  43  56 W18       29.61R
MEDICINE HAT   MOCLDY    52  48  86 SW9       29.53S
EDMONTON       MOCLDY    50  46  86 NW12      29.62R
WATERTON GATE  N/A       54  37  53 SW9        N/A
CARDSTON       N/A       54  43  67 W5         N/A
MILK RIVER     N/A       55  43  64 W14        N/A
$$

REGIONAL REPORTS...SASKATCHEWAN
CITY           SKY/WX    TMP DP  RH WIND       PRES   REMARKS
SWIFT CURRENT  CLOUDY    50  48  93 S21G28    29.57R
MOOSE JAW      CLOUDY    52  50  93 SE13      29.65F
REGINA         FOG       50  50 100 SE16      29.69F VSB 2
VAL MARIE      N/A       50  48  93 S12        N/A
ASSINIBOIA     N/A       50  46  86 SE6        N/A
CORONACH       N/A       50  50 100 SE10       N/A

$$




USA.gov is the U.S. government's official web portal to all federal, state and local government web resources and services.